TimeEDT,TemperatureF,Dew PointF,Humidity,Sea Level PressureIn,VisibilityMPH,Wind Direction,Wind SpeedMPH,Gust SpeedMPH,PrecipitationIn,Events,Conditions,WindDirDegrees,DateUTC
12:53 AM,37.0,36.0,96,30.17,8.0,Calm,Calm,-,N/A,,Clear,0,2011-11-05 04:53:00
1:53 AM,36.0,34.0,93,30.16,6.0,Calm,Calm,-,N/A,,Clear,0,2011-11-05 05:53:00
2:09 AM,35.6,35.6,100,30.19,2.0,Calm,Calm,-,N/A,,Scattered Clouds,0,2011-11-05 06:09:00
2:12 AM,35.6,35.6,100,30.19,1.0,Calm,Calm,-,N/A,,Overcast,0,2011-11-05 06:12:00
2:38 AM,35.6,35.6,100,30.19,0.2,Calm,Calm,-,N/A,Fog,Fog,0,2011-11-05 06:38:00
2:48 AM,37.4,37.4,100,30.19,0.1,Calm,Calm,-,N/A,Fog,Fog,0,2011-11-05 06:48:00
2:53 AM,37.0,37.0,100,30.16,0.1,Calm,Calm,-,N/A,Fog,Fog,0,2011-11-05 06:53:00
3:53 AM,36.0,36.0,100,30.16,0.1,Calm,Calm,-,N/A,Fog,Fog,0,2011-11-05 07:53:00
4:53 AM,34.0,34.0,100,30.17,0.1,Calm,Calm,-,N/A,Fog,Fog,0,2011-11-05 08:53:00
5:53 AM,34.0,34.0,100,30.21,0.1,Calm,Calm,-,N/A,Fog,Fog,0,2011-11-05 09:53:00
6:53 AM,34.0,33.1,96,30.24,0.1,Calm,Calm,-,N/A,Fog,Fog,0,2011-11-05 10:53:00
7:53 AM,34.0,34.0,100,30.26,0.1,Calm,Calm,-,N/A,Fog,Fog,0,2011-11-05 11:53:00
8:53 AM,33.1,33.1,100,30.30,0.1,Calm,Calm,-,N/A,Fog,Fog,0,2011-11-05 12:53:00
9:13 AM,33.8,33.8,100,30.31,0.2,Calm,Calm,-,N/A,Fog,Fog,0,2011-11-05 13:13:00
9:23 AM,35.6,35.6,100,30.32,1.0,Calm,Calm,-,N/A,Fog,Patches of Fog,0,2011-11-05 13:23:00
9:27 AM,35.6,35.6,100,30.32,4.0,Calm,Calm,-,N/A,Fog,Patches of Fog,0,2011-11-05 13:27:00
9:53 AM,37.9,36.0,93,30.31,10.0,East,4.6,-,N/A,,Clear,90,2011-11-05 13:53:00
10:53 AM,45.0,34.0,65,30.32,10.0,East,4.6,-,N/A,,Clear,80,2011-11-05 14:53:00
11:53 AM,50.0,34.0,54,30.31,10.0,Calm,Calm,-,N/A,,Clear,0,2011-11-05 15:53:00
12:53 PM,54.0,32.0,43,30.29,10.0,East,4.6,-,N/A,,Clear,100,2011-11-05 16:53:00
1:53 PM,57.0,30.9,37,30.25,10.0,NNE,4.6,-,N/A,,Clear,30,2011-11-05 17:53:00
2:53 PM,59.0,30.0,33,30.25,10.0,Calm,Calm,-,N/A,,Clear,0,2011-11-05 18:53:00
3:53 PM,62.1,28.0,28,30.23,10.0,Calm,Calm,-,N/A,,Clear,0,2011-11-05 19:53:00
4:53 PM,61.0,30.0,31,30.23,10.0,ESE,4.6,-,N/A,,Clear,110,2011-11-05 20:53:00
5:53 PM,59.0,30.0,33,30.22,10.0,East,4.6,-,N/A,,Clear,80,2011-11-05 21:53:00
6:53 PM,54.0,30.9,41,30.24,10.0,East,5.8,-,N/A,,Clear,90,2011-11-05 22:53:00
7:53 PM,48.0,30.0,50,30.26,10.0,East,3.5,-,N/A,,Clear,90,2011-11-05 23:53:00
8:53 PM,46.9,21.0,36,30.28,10.0,East,5.8,-,N/A,,Clear,100,2011-11-06 00:53:00
9:53 PM,44.1,21.0,40,30.29,10.0,ENE,3.5,-,N/A,,Clear,70,2011-11-06 01:53:00
10:53 PM,37.9,25.0,60,30.30,10.0,Calm,Calm,-,N/A,,Clear,0,2011-11-06 02:53:00
11:53 PM,37.9,24.1,57,30.30,10.0,Calm,Calm,-,N/A,,Clear,0,2011-11-06 03:53:00